owner,sensor,date,latitude,longitude,vertical_datum,sea_water_temperature,qcFlag
BP,ioos:station:wmo:42369:3,2023-02-02T00:20:00Z,27.2060,-90.2897,445.3,11.1,11111222
BP,ioos:station:wmo:42369:3,2023-02-02T00:40:00Z,27.2059,-90.2896,446.3,11.1,11111222
BP,ioos:station:wmo:42369:3,2023-02-02T01:00:00Z,27.2058,-90.2897,445.3,11.1,11111222
BP,ioos:station:wmo:42369:3,2023-02-02T01:20:00Z,27.2056,-90.2897,445.8,11.2,11111222
BP,ioos:station:wmo:42369:3,2023-02-02T01:40:00Z,27.2054,-90.2897,445.7,11.1,11111222
BP,ioos:station:wmo:42369:3,2023-02-02T02:00:00Z,27.2054,-90.2897,446.4,11.0,11111222
BP,ioos:station:wmo:42369:3,2023-02-02T02:20:00Z,27.2052,-90.2897,445.7,11.1,11111222
BP,ioos:station:wmo:42369:3,2023-02-02T02:40:00Z,27.2052,-90.2897,446.2,11.1,11111222
BP,ioos:station:wmo:42369:3,2023-02-02T03:00:00Z,27.2052,-90.2897,446.6,11.2,11111222
BP,ioos:station:wmo:42369:3,2023-02-02T03:20:00Z,27.2050,-90.2896,446.3,11.2,11111222
BP,ioos:station:wmo:42369:3,2023-02-02T03:40:00Z,27.2050,-90.2895,445.5,11.2,11111222
BP,ioos:station:wmo:42369:3,2023-02-02T04:00:00Z,27.2050,-90.2895,445.4,11.2,11111222
BP,ioos:station:wmo:42369:3,2023-02-02T04:20:00Z,27.2050,-90.2895,446.0,11.2,11111222
BP,ioos:station:wmo:42369:3,2023-02-02T04:40:00Z,27.2050,-90.2894,444.7,11.3,11111222
BP,ioos:station:wmo:42369:3,2023-02-02T05:00:00Z,27.2049,-90.2894,444.7,11.3,11111222
BP,ioos:station:wmo:42369:3,2023-02-02T05:20:00Z,27.2048,-90.2894,445.2,11.3,11111222
BP,ioos:station:wmo:42369:3,2023-02-02T05:40:00Z,27.2047,-90.2894,445.7,11.4,11111222
BP,ioos:station:wmo:42369:3,2023-02-02T06:00:00Z,27.2048,-90.2894,445.5,11.4,11111222
BP,ioos:station:wmo:42369:3,2023-02-02T06:20:00Z,27.2049,-90.2894,446.1,11.3,11111222
BP,ioos:station:wmo:42369:3,2023-02-02T06:40:00Z,27.2049,-90.2894,445.5,11.3,11111222
BP,ioos:station:wmo:42369:3,2023-02-02T07:20:00Z,27.2047,-90.2892,444.6,11.3,11111222
BP,ioos:station:wmo:42369:3,2023-02-02T07:40:00Z,27.2047,-90.2891,444.5,11.2,11111222
BP,ioos:station:wmo:42369:3,2023-02-02T08:00:00Z,27.2047,-90.2891,445.9,11.2,11111222
BP,ioos:station:wmo:42369:3,2023-02-02T08:20:00Z,27.2045,-90.2890,444.9,11.2,11111222
BP,ioos:station:wmo:42369:3,2023-02-02T08:40:00Z,27.2046,-90.2889,445.4,11.2,11111222
BP,ioos:station:wmo:42369:3,2023-02-02T09:00:00Z,27.2045,-90.2889,444.2,11.2,11111222
BP,ioos:station:wmo:42369:3,2023-02-02T09:20:00Z,27.2045,-90.2889,445.7,11.1,11111222
BP,ioos:station:wmo:42369:3,2023-02-02T09:40:00Z,27.2045,-90.2888,445.4,11.2,11111222
BP,ioos:station:wmo:42369:3,2023-02-02T10:00:00Z,27.2045,-90.2889,445.3,11.2,11111222
BP,ioos:station:wmo:42369:3,2023-02-02T10:20:00Z,27.2046,-90.2889,444.7,11.2,11111222
BP,ioos:station:wmo:42369:3,2023-02-02T10:40:00Z,27.2045,-90.2890,444.9,11.2,11111222
BP,ioos:station:wmo:42369:3,2023-02-02T11:00:00Z,27.2045,-90.2889,444.8,11.3,11111222
BP,ioos:station:wmo:42369:3,2023-02-02T11:20:00Z,27.2045,-90.2889,444.8,11.2,11111222
BP,ioos:station:wmo:42369:3,2023-02-02T11:40:00Z,27.2044,-90.2890,445.4,11.2,11111222
BP,ioos:station:wmo:42369:3,2023-02-02T12:20:00Z,27.2043,-90.2890,444.5,11.2,11111222
BP,ioos:station:wmo:42369:3,2023-02-02T12:40:00Z,27.2042,-90.2889,445.4,11.2,11111222
BP,ioos:station:wmo:42369:3,2023-02-02T13:00:00Z,27.2042,-90.2890,446.0,11.2,11111222
BP,ioos:station:wmo:42369:3,2023-02-02T13:20:00Z,27.2042,-90.2890,444.4,11.2,11111222
BP,ioos:station:wmo:42369:3,2023-02-02T14:20:00Z,27.2041,-90.2890,445.9,11.1,11111222
BP,ioos:station:wmo:42369:3,2023-02-02T14:40:00Z,27.2041,-90.2890,446.4,11.1,11111222
BP,ioos:station:wmo:42369:3,2023-02-02T15:00:00Z,27.2040,-90.2890,445.4,11.1,11111222
BP,ioos:station:wmo:42369:3,2023-02-02T15:20:00Z,27.2042,-90.2892,447.5,11.0,11111222
